Погода в Дуале

Камерун     4°02′19″N   9°44′01″E
темп.,
°C
ветер,
м/с
пор.,
м/с
влажн.,
%
обл.,
%
осадки,
мм/ч
давл.,
гПа
погр.,
м
26 октября, вт
вт2601:00+24сз1292100 1.9 101393
04:00+23ссв1292100 0.4 1012109
07:00+24ссв1189100 0.6 1014121
10:00+28юв0172100 0.1 1014746
13:00+29ююз336870 0.1 10111122
16:00+27ююз2482100 1.4 1010334
19:00+25ю128858 1.4 101188
22:00+25ююз1290100 0.1 101395
27 октября, ср
ср2701:00+25сз019299 0.1 101250
04:00+24ссв1193100 0.3 101139
07:00+24всв1195100 1.7 101364
10:00+24с1295100 8.4 101470
13:00+26зюз3386100 9.5 1011481
16:00+26ююз2179100 0.0 1009626
19:00+24ююз239260 0.0 1011127
22:00+23ю119329 0.1 101331
28 октября, чт
чт2801:00+23вюв1194100 0.2 101239
04:00+23всв1297100 0.3 101166
07:00+23ссв1295100 0.6 1013116
10:00+24св1293100 0.4 1014214
13:00+29юз226826 0.4 1010857
16:00+27юз447869 0.1 1008474
19:00+25юз3788100 0.3 1011357
22:00+24ююз1395100 3.1 101397
29 октября, пт
пт2901:00+24зсз0195100 4.2 101175
04:00+24всв1195100 0.3 101043
07:00+24всв119596 0.4 101287
10:00+29ю017568 0.3 1013788
13:00+27зюз118189 2.1 1010471
16:00+26юз128699 0.1 1008214
19:00+25юз238980 0.1 1009128
22:00+24ююз129210 0.0 101061
30 октября, сб
сб3001:00+24юв119531 0.0 101033
04:00+23всв1197100 3.6 100953
07:00+24с0197100 7.4 101189
10:00+26ююз008699 0.3 1012389
13:00+28юз117878 0.3 1010543
16:00+28юз337269 0.1 1008687
19:00+25юз3788100 0.6 1010327
22:00+25зюз2489100 0.3 1012136